Weather History for Medicine Lodge, KS

Change the Weather History Date:

Saturday, October 13, 2012

  Actual Average Record
Temperature  
Mean Temperature 72 °F 60 °F  
Max Temperature 86 °F 72 °F 94 °F (1992)
Min Temperature 58 °F 47 °F 31 °F (1896)
Degree Days  
Heating Degree Days 0 6  
Month to date heating degree days 117 65  
Since 1 July heating degree days 129 99  
Cooling Degree Days 7 1  
Month to date cooling degree days 13 29  
Year to date cooling degree days 2225 1760  
Growing Degree Days 22 (Base 50)    
Moisture  
Dew Point 53 °F    
Average Humidity 56    
Maximum Humidity 100    
Minimum Humidity 12    
Precipitation  
Precipitation 0.02 in 0.11 in 1.73 in (1960)
Month to date precipitation 0.07 1.20  
Year to date precipitation 16.94 23.65  
Snow  
Snow 0.00 in 0.00 in - ()
Month to date snowfall 0.0 0.0  
Since 1 July snowfall 0.0 0.0  
Since 1 September snowfall 0.0 0.0  
Snow Depth -    
Sea Level Pressure  
Sea Level Pressure 29.74 in    
Wind  
Wind Speed 12 mph (SSW)    
Max Wind Speed 30 mph    
Max Gust Speed 41 mph    
T = Trace of Precipitation, MM = Missing Value Source: NWS Daily Summary

Daily Weather History Graph

Daily Weather History Graph

Search for Another Location

Airport:

Trip Planner

Search our weather history database for the weather conditions in past years. The results will help you decide how hot, cold, wet, or windy it might be!

Date:

Astronomy

Oct. 13, 2012 Rise Set
Actual Time 7:40 AM CDT 6:59 PM CDT
Civil Twilight 7:14 AM CDT 7:25 PM CDT
Nautical Twilight 6:44 AM CDT 7:55 PM CDT
Astronomical Twilight 6:14 AM CDT 8:25 PM CDT
Moon 5:34 AM CDT (10/13) 5:42 PM CDT (10/13)
Length of Visible Light 12h 10m
Length of Day
11h 18m
Waning Crescent, 5% of the Moon is Illuminated
Oct 13
Waning Crescent
Oct 15
New
Oct 21
First Quarter
Oct 29
Full
Nov 6
Last Quarter

Hourly Weather History & Observations

Time (CDT) Temp. Heat Index Dew Point Humidity Pressure Visibility Wind Dir Wind Speed Gust Speed Precip Events Conditions
12:56 AM 57.9 °F - 57.0 °F 97% 29.93 in - SE 8.1 mph - N/A   Unknown
1:56 AM 60.1 °F - 59.0 °F 96% 29.93 in - SSE 6.9 mph - N/A   Unknown
2:56 AM 61.0 °F - 60.1 °F 97% 29.89 in - SE 11.5 mph - 0.01 in   Unknown
3:56 AM 63.0 °F - 62.1 °F 97% 29.88 in - Variable 6.9 mph - N/A   Unknown
4:56 AM 64.0 °F - 62.1 °F 93% 29.87 in - ESE 3.5 mph - N/A   Unknown
5:56 AM 63.0 °F - 61.0 °F 93% 29.90 in - Calm Calm - 0.01 in   Unknown
6:56 AM 63.0 °F - 62.1 °F 97% 29.87 in - ESE 5.8 mph - N/A   Unknown
7:56 AM 62.1 °F - 61.0 °F 96% 29.84 in - East 4.6 mph - N/A   Unknown
8:56 AM 66.0 °F - 63.0 °F 90% 29.82 in - SSE 8.1 mph - N/A   Unknown
9:56 AM 69.1 °F - 64.9 °F 87% 29.81 in - South 8.1 mph - N/A   Unknown
10:56 AM 70.0 °F - 66.0 °F 87% 29.79 in - South 11.5 mph 20.7 mph N/A   Unknown
11:56 AM 72.0 °F - 66.9 °F 84% 29.75 in - South 12.7 mph 19.6 mph N/A   Unknown
12:56 PM 75.9 °F - 66.0 °F 71% 29.71 in - SSW 23.0 mph 27.6 mph N/A   Unknown
1:56 PM 82.9 °F 84.4 °F 64.0 °F 53% 29.65 in - SSW 21.9 mph 27.6 mph N/A   Unknown
2:56 PM 84.0 °F 84.5 °F 62.1 °F 47% 29.60 in - South 17.3 mph 26.5 mph N/A   Unknown
3:56 PM 86.0 °F 84.2 °F 54.0 °F 33% 29.58 in - SSW 20.7 mph 28.8 mph N/A   Unknown
4:56 PM 84.9 °F - 35.1 °F 17% 29.57 in - SW 25.3 mph 35.7 mph N/A   Unknown
5:56 PM 82.9 °F - 25.0 °F 12% 29.57 in - WSW 17.3 mph 36.8 mph N/A   Unknown
6:56 PM 79.0 °F - 32.0 °F 18% 29.59 in - West 15.0 mph 24.2 mph N/A   Unknown
7:56 PM 73.0 °F - 30.9 °F 21% 29.61 in - WSW 10.4 mph - N/A   Unknown
8:56 PM 69.1 °F - 37.0 °F 31% 29.68 in - WNW 15.0 mph 25.3 mph N/A   Unknown
9:56 PM 64.9 °F - 43.0 °F 45% 29.67 in - NW 17.3 mph 21.9 mph N/A   Unknown
10:56 PM 63.0 °F - 43.0 °F 48% 29.67 in - West 9.2 mph - N/A   Unknown
11:56 PM 61.0 °F - 44.1 °F 54% 29.68 in - West 13.8 mph - N/A   Unknown